• In Hungary
  • List of Countries
  • For 7 days
  • Water Temperature
  • Satellite Maps
  • Weather Map
  • News
  • Weather Widgets
  • user-avatar
    Login

    Hourly Weather Karoi

    Today, 18 January, Thursday

    Time Temperature Precipitation Wind Pressure Humidity
    00:00 +19°C° 0 mm 1 mps 652 mmHg 87%
    01:00 +19°C° 0 mm 1 mps 652 mmHg 89%
    02:00 +19°C° 0 mm 1 mps 652 mmHg 90%
    03:00 +18°C° 0 mm 1 mps 652 mmHg 91%
    04:00 +18°C° 0 mm 1 mps 652 mmHg 92%
    05:00 +18°C° 0 mm 1 mps 652 mmHg 93%
    06:00 +19°C° 0 mm 1 mps 653 mmHg 88%
    07:00 +21°C° 0 mm 1 mps 653 mmHg 83%
    08:00 +23°C° 0 mm 1 mps 654 mmHg 78%
    09:00 +24°C° 0.1 mm 1 mps 654 mmHg 69%
    10:00 +26°C° 0.1 mm 1 mps 655 mmHg 60%
    11:00 +28°C° 0.1 mm 2 mps 655 mmHg 51%
    12:00 +28°C° 0.1 mm 2 mps 654 mmHg 49%
    13:00 +29°C° 0.1 mm 2 mps 654 mmHg 47%
    14:00 +29°C° 0.1 mm 2 mps 653 mmHg 45%
    15:00 +29°C° 0 mm 2 mps 653 mmHg 47%
    16:00 +29°C° 0 mm 2 mps 652 mmHg 48%
    17:00 +28°C° 0 mm 2 mps 651 mmHg 50%
    18:00 +26°C° 0 mm 2 mps 651 mmHg 54%
    19:00 +25°C° 0 mm 1 mps 651 mmHg 59%
    20:00 +23°C° 0 mm 1 mps 651 mmHg 63%
    21:00 +22°C° 0 mm 1 mps 651 mmHg 62%
    22:00 +22°C° 0 mm 1 mps 652 mmHg 61%
    23:00 +22°C° 0 mm 1 mps 652 mmHg 60%

    Tomorrow, 19 January, Friday

    Time Temperature Precipitation Wind Pressure Humidity
    00:00 +22°C° 0 mm 1 mps 652 mmHg 63%
    01:00 +22°C° 0 mm 1 mps 652 mmHg 65%
    02:00 +21°C° 0 mm 1 mps 652 mmHg 67%
    03:00 +20°C° 0 mm 1 mps 652 mmHg 72%
    04:00 +19°C° 0 mm 1 mps 652 mmHg 77%
    05:00 +18°C° 0 mm 1 mps 651 mmHg 82%
    06:00 +19°C° 0 mm 2 mps 652 mmHg 78%
    07:00 +20°C° 0 mm 2 mps 653 mmHg 74%
    08:00 +21°C° 0 mm 2 mps 653 mmHg 70%
    09:00 +24°C° 0 mm 2 mps 654 mmHg 64%
    10:00 +26°C° 0 mm 2 mps 654 mmHg 58%
    11:00 +28°C° 0 mm 2 mps 654 mmHg 51%
    12:00 +29°C° 0.1 mm 1 mps 654 mmHg 50%
    13:00 +30°C° 0.1 mm 1 mps 653 mmHg 48%
    14:00 +28°C° 0.1 mm 0 mps 653 mmHg 46%
    15:00 +29°C° 0.1 mm 1 mps 652 mmHg 49%
    16:00 +28°C° 0.1 mm 1 mps 651 mmHg 53%
    17:00 +27°C° 0.1 mm 1 mps 650 mmHg 56%
    18:00 +25°C° 0 mm 1 mps 650 mmHg 61%
    19:00 +24°C° 0 mm 1 mps 650 mmHg 66%
    20:00 +22°C° 0 mm 1 mps 651 mmHg 71%
    21:00 +22°C° 0 mm 1 mps 651 mmHg 72%
    22:00 +21°C° 0 mm 1 mps 651 mmHg 74%
    23:00 +21°C° 0 mm 1 mps 651 mmHg 76%

    Day after tomorrow, 20 January, Saturday

    Time Temperature Precipitation Wind Pressure Humidity
    00:00 +20°C° 0 mm 1 mps 651 mmHg 76%
    01:00 +20°C° 0 mm 1 mps 651 mmHg 75%
    02:00 +20°C° 0 mm 1 mps 651 mmHg 75%
    03:00 +20°C° 0 mm 1 mps 651 mmHg 76%
    04:00 +20°C° 0 mm 1 mps 651 mmHg 77%
    05:00 +20°C° 0 mm 1 mps 651 mmHg 78%
    06:00 +21°C° 0 mm 1 mps 652 mmHg 73%
    07:00 +21°C° 0 mm 2 mps 653 mmHg 69%
    08:00 +23°C° 0 mm 2 mps 653 mmHg 65%
    09:00 +25°C° 0 mm 2 mps 654 mmHg 59%
    10:00 +27°C° 0 mm 2 mps 654 mmHg 53%
    11:00 +28°C° 0 mm 2 mps 654 mmHg 47%
    12:00 +30°C° 0 mm 2 mps 654 mmHg 45%
    13:00 +31°C° 0 mm 1 mps 653 mmHg 42%
    14:00 +30°C° 0 mm 0 mps 653 mmHg 40%
    15:00 +29°C° 0 mm 0 mps 652 mmHg 42%
    16:00 +30°C° 0 mm 1 mps 652 mmHg 44%
    17:00 +29°C° 0 mm 1 mps 651 mmHg 46%
    18:00 +27°C° 0 mm 1 mps 651 mmHg 51%
    19:00 +25°C° 0 mm 1 mps 651 mmHg 56%
    20:00 +23°C° 0 mm 1 mps 651 mmHg 61%
    21:00 +22°C° 0 mm 1 mps 651 mmHg 63%
    22:00 +22°C° 0 mm 1 mps 652 mmHg 64%
    23:00 +21°C° 0 mm 1 mps 652 mmHg 65%

    21 January, Sunday

    Time Temperature Precipitation Wind Pressure Humidity
    00:00 +21°C° 0 mm 1 mps 652 mmHg 67%
    01:00 +21°C° 0 mm 1 mps 651 mmHg 68%
    02:00 +20°C° 0 mm 1 mps 651 mmHg 70%
    03:00 +20°C° 0 mm 1 mps 651 mmHg 71%
    04:00 +20°C° 0 mm 1 mps 651 mmHg 72%
    05:00 +20°C° 0 mm 1 mps 652 mmHg 72%
    06:00 +22°C° 0 mm 1 mps 653 mmHg 69%
    07:00 +23°C° 0 mm 1 mps 653 mmHg 65%
    08:00 +24°C° 0 mm 1 mps 654 mmHg 62%
    09:00 +26°C° 0.1 mm 2 mps 654 mmHg 58%
    10:00 +27°C° 0.1 mm 2 mps 654 mmHg 54%
    11:00 +29°C° 0.1 mm 2 mps 655 mmHg 50%
    12:00 +30°C° 0.2 mm 1 mps 654 mmHg 48%
    13:00 +30°C° 0.2 mm 1 mps 653 mmHg 46%
    14:00 +29°C° 0.2 mm 0 mps 652 mmHg 44%
    15:00 +28°C° 0 mm 0 mps 652 mmHg 45%
    16:00 +28°C° 0 mm 0 mps 651 mmHg 46%
    17:00 +27°C° 0 mm 0 mps 651 mmHg 48%
    18:00 +27°C° 0 mm 1 mps 651 mmHg 53%
    19:00 +25°C° 0 mm 1 mps 651 mmHg 58%
    20:00 +23°C° 0 mm 1 mps 651 mmHg 64%
    21:00 +23°C° 0 mm 1 mps 651 mmHg 67%
    22:00 +22°C° 0 mm 1 mps 651 mmHg 69%
    23:00 +22°C° 0 mm 1 mps 651 mmHg 72%

    22 January, Monday

    Time Temperature Precipitation Wind Pressure Humidity
    00:00 +21°C° 0.4 mm 1 mps 651 mmHg 75%
    01:00 +21°C° 0.4 mm 1 mps 651 mmHg 78%
    02:00 +20°C° 0.4 mm 1 mps 650 mmHg 80%
    03:00 +20°C° 0 mm 1 mps 650 mmHg 82%
    04:00 +18°C° 0 mm 2 mps 651 mmHg 84%
    05:00 +18°C° 0 mm 2 mps 651 mmHg 86%
    06:00 +19°C° 0 mm 2 mps 652 mmHg 81%
    07:00 +21°C° 0 mm 2 mps 652 mmHg 76%
    08:00 +22°C° 0 mm 3 mps 653 mmHg 71%
    09:00 +25°C° 0.3 mm 3 mps 653 mmHg 66%
    10:00 +26°C° 0.3 mm 3 mps 653 mmHg 61%
    11:00 +28°C° 0.3 mm 3 mps 653 mmHg 56%
    12:00 +28°C° 0.7 mm 2 mps 653 mmHg 55%
    13:00 +29°C° 0.7 mm 2 mps 652 mmHg 54%
    14:00 +29°C° 0.7 mm 1 mps 651 mmHg 54%
    15:00 +29°C° 0.8 mm 1 mps 651 mmHg 56%
    16:00 +28°C° 0.8 mm 1 mps 651 mmHg 59%
    17:00 +27°C° 0.8 mm 1 mps 650 mmHg 61%
    18:00 +25°C° 0.3 mm 1 mps 650 mmHg 67%
    19:00 +23°C° 0.3 mm 1 mps 650 mmHg 72%
    20:00 +22°C° 0.3 mm 1 mps 650 mmHg 78%
    21:00 +21°C° 0.6 mm 1 mps 650 mmHg 79%
    22:00 +21°C° 0.6 mm 1 mps 650 mmHg 80%
    23:00 +21°C° 0.6 mm 1 mps 650 mmHg 81%

    23 January, Tuesday

    Time Temperature Precipitation Wind Pressure Humidity
    00:00 +20°C° 0.6 mm 1 mps 650 mmHg 83%
    01:00 +20°C° 0.6 mm 1 mps 650 mmHg 85%
    02:00 +19°C° 0.6 mm 2 mps 650 mmHg 86%
    03:00 +19°C° 0.5 mm 2 mps 650 mmHg 87%
    04:00 +18°C° 0.5 mm 2 mps 650 mmHg 87%
    05:00 +18°C° 0.5 mm 2 mps 651 mmHg 88%
    06:00 +19°C° 0 mm 2 mps 651 mmHg 86%
    07:00 +20°C° 0 mm 2 mps 652 mmHg 84%
    08:00 +20°C° 0 mm 3 mps 652 mmHg 82%
    09:00 +22°C° 0.1 mm 3 mps 652 mmHg 74%
    10:00 +25°C° 0.1 mm 2 mps 652 mmHg 66%
    11:00 +27°C° 0.1 mm 2 mps 653 mmHg 58%
    12:00 +28°C° 0.4 mm 2 mps 652 mmHg 55%
    13:00 +29°C° 0.4 mm 1 mps 652 mmHg 52%
    14:00 +30°C° 0.4 mm 1 mps 651 mmHg 49%
    15:00 +29°C° 0.7 mm 1 mps 651 mmHg 53%
    16:00 +28°C° 0.7 mm 1 mps 650 mmHg 57%
    17:00 +27°C° 0.7 mm 1 mps 650 mmHg 60%
    18:00 +25°C° 0.1 mm 1 mps 650 mmHg 65%
    19:00 +24°C° 0.1 mm 1 mps 650 mmHg 71%
    20:00 +22°C° 0.1 mm 1 mps 650 mmHg 76%
    21:00 +21°C° 0.1 mm 1 mps 650 mmHg 78%
    22:00 +21°C° 0.1 mm 1 mps 650 mmHg 80%
    23:00 +20°C° 0.1 mm 1 mps 651 mmHg 81%
    Show more